Regional Weather Roundup
Issued by NWS Green Bay, WI

Home | Current Version | Previous Version | Graphics & Text | Print | Product List | Glossary Off
Versions: 1 2 3 4 5 6 7 8 9 10 11 12 13 14 15 16 17 18 19 20 21 22 23 24 25 26 27 28 29 30 31 32 33 34 35 36 37 38 39 40 41 42 43 44 45 46 47 48 49 50

000
ASUS43 KGRB 310111
RWRGRB

NORTH-CENTRAL AND NORTHEAST WISCONSIN REGIONAL WEATHER ROUNDUP
NATIONAL WEATHER SERVICE GREEN BAY WI
800 PM CDT SUN AUG 30 2015

WIZ005-009-010>012-018-019-310200-
NORTH CENTRAL WISCONSIN

CITY           SKY/WX    TMP DP  RH WIND       PRES   REMARKS
IRONWOOD       CLEAR     73  64  73 SW9       29.88R
MANITOWISH WTR CLEAR     68  64  88 S6        29.95S
ARBOR VITAE    CLEAR     69  65  87 S5        29.96S
EAGLE RIVER    CLEAR     69  60  74 SW5       29.96R
LAND O LAKES   CLEAR     69  63  79 CALM      29.96S
RHINELANDER    CLEAR     69  62  78 SW7       29.98S
PHILLIPS       PTCLDY    70  64  83 SW5       29.96S
ANTIGO         CLEAR     64  62  93 S5        29.99S
TOMAHAWK       CLEAR     65  62  90 CALM      29.98R
MERRILL        CLEAR     70  64  83 CALM      29.99R
$$

WIZ013-073-310200-
NORTHEAST WISCONSIN

CITY           SKY/WX    TMP DP  RH WIND       PRES   REMARKS
IRON MOUNTAIN  CLEAR     69  64  84 S6        29.93S
MARINETTE      CLEAR     66  61  82 SW8       29.95S
OCONTO         CLEAR     67  67 100 CALM      29.96S
$$

WIZ017-030-035>037-045-310200-
CENTRAL WISCONSIN

CITY           SKY/WX    TMP DP  RH WIND       PRES   REMARKS
MEDFORD        CLEAR     66  63  91 S7        29.99R
WAUSAU         CLEAR     70  63  78 SW6       29.97S
MOSINEE        CLEAR     66  64  94 S6        30.00R
MARSHFIELD     CLEAR     68  61  78 SW6       29.99R
WISC RAPIDS    CLEAR     68  63  84 S3        30.00S
STEVENS POINT  CLEAR     67  62  85 S6        29.99S
WAUPACA        CLEAR     69  67  94 CALM      29.99S
SHAWANO        CLEAR     70  65  83 CALM      29.98S
CLINTONVILLE   CLEAR     68  63  83 S5        29.98S
WAUTOMA        CLEAR     69  67  93 CALM      30.00R
$$

WIZ038-039-048-051-310200-
FOX VALLEY

CITY           SKY/WX    TMP DP  RH WIND       PRES   REMARKS
NWS GREEN BAY  CLEAR     67  64  90 S5        29.98S
APPLETON       CLEAR     66  63  88 S7        29.98S
OSHKOSH        CLEAR     64  62  93 S5        30.00R
FOND DU LAC    CLEAR     66  63  90 S5        30.00S
$$

WIZ022-050-052-310200-
EAST CENTRAL WISCONSIN

CITY           SKY/WX    TMP DP  RH WIND       PRES   REMARKS
EPHRAIM        FAIR      64  61  91 S3        29.96R
STURGEON BAY   CLEAR     64  59  82 S5        30.00S
MANITOWOC      CLEAR     63  60  90 MISG      30.00S
SHEBOYGAN      CLEAR     63  61  93 S5        30.01R
$$

LMZ563-521-522-541>543-310200-
LAKESHORE

STATION/POSITION TIME  TEMP    WIND        PRES    VSBY  WAVE
                       AIR SEA DIR/SP/G                  HT/PER
                 (UTC) (F)     (DEG/KT/KT) (MB)    (MI)  (FT/S)
SHEBOYGAN LKSHOR 0100   61     180/ 12/ 12 1016.5R
NORTHPORT PIER   0000   66     170/  4/  6 1013.9F
N MID LAKE BUOY  0050   65 65  210/ 16/ 17 1014.0R         2/ 4
S GREEN BAY BUOY 0100   66 64  210/  8/  8 1016.2R
CHAMBERS ISLAND  0000   69     190/  7/ 15 1013.9F
$$



USA.gov is the U.S. government's official web portal to all federal, state and local government web resources and services.